Location: Oberwangen
(47.4286°N, 8.9679°E)
Time: 22:05:19
(UTC+00:00)

Cosmos 1606 Rocket - Pass Details

Date: 20 June 2021
Orbit: 602 x 632 km, 82.5° (Epoch: 23 July)

Event Time Altitude Azimuth Distance (km) Brightness Sun altitude
Rises 21:33:25 0° 352° (N) 2,936 8.5 -14.7°
Reaches altitude 10° 21:35:42 10° 355° (N) 2,021 7.3 -14.9°
Maximum altitude 21:40:10 71° 79° (E) 669 3.6 -15.2°
Enters shadow 21:42:30 27° 158° (SSE) 1,201 4.4 -15.4°
